Weather in Kobyletska Glade

Ukraine / Zakarpattia District     48°03′06″N   24°03′36″E
temp.,
°C
wind,
m/s
gust,
m/s
humid.,
%
clouds,
%
prec.,
mm/h
press.,
hPa
HPBL,
m
18 january, tue
tue1823:00−10nne119582 0.0 101818
02:00−9nnw119883 0.4 102150
05:00−10ne119659 0.1 102511
08:00−10ne119680 0.1 102719
11:00−7nw129286 0.1 1028266
14:00−4wnw2486100 0.2 1028584
17:00−5nnw129671 0.4 102939
20:00−9nne119558 0.5 103322
19 january, wed
wed1923:00−9ne119566 0.1 103429
02:00−12ene119567 0.1 103615
05:00−11e229499 0.0 103554
08:00−11e1193100 0.0 103617
11:00−6sse11835 0.0 1034176
14:00−4sw018439 0.0 1032312
17:00−8e119537 0.0 103012
20:00−10ese119774 0.0 103015
20 january, thu
thu2023:00
02:00−11e2196100 0.0 102614
05:00−12e219621 0.0 102413
08:00
11:00−5sse2482100 0.1 1018237
14:00−3s2495100 1.8 1014359
17:00−3s3897100 4.3 1012530
20:00−4s3898100 8.4 1011467
21 january, fri
fri2123:00−7wsw2687100 2.3 1013228
02:00−8sw259695 3.0 1015331
05:00−9s129798 0.8 101685
08:00−8s1296100 2.1 1018103
11:00−6ssw1293100 1.1 1019299
14:00−5wsw2392100 2.1 1018573
17:00−6wnw2595100 0.9 1019278
20:00−9sse119787 1.4 102017
22 january, sat
sat2223:00−9sse119798 0.6 102138
02:00−9sse1297100 1.8 102063
05:00−9sse1197100 0.9 102054
08:00−10se1197100 1.6 102124
11:00−7s1194100 1.1 1021256
14:00−5w2589100 2.1 1021647
17:00−8wsw1196100 0.5 102218
20:00−7se1197100 1.5 102351